DateTimeUTC,F1_A11,F1_S11,BsB_S11,BsG_S11,BsR_S11,BbsB_S11,BbsG_S11,BbsR_S11,BaB_A11,BaG_A11,BaR_A11,Tu_S11,T_S11,Uu_S11,U_S11,P_S11,T1_A11
2021-02-14T19:00:00Z,00000200,21000000,,,,,,,-000.16,-000.28,-000.27,17.2,23.7,,00.0,0647.9,31.1
2021-02-14T19:01:00Z,00000200,21000000,,,,,,,-000.04,-000.09,-000.04,17.2,23.7,,00.0,0647.9,31.1
2021-02-14T19:02:00Z,00000200,21000000,,,,,,,-000.57,0000.00,-000.14,17.2,23.7,,00.0,0647.9,31.1
2021-02-14T19:03:00Z,00000200,61000000,,,,,,,0000.17,-000.05,0000.14,17.2,23.7,,00.0,0647.9,31.1
2021-02-14T19:04:00Z,00000200,41000000,0000.57,0000.24,0000.19,-000.46,-000.05,-000.04,0000.05,-000.38,-000.20,17.2,23.5,,00.0,0648.8,31.1
2021-02-14T19:05:00Z,00000200,01000000,0000.53,0000.18,0000.32,0000.13,0000.21,0000.01,0000.19,0000.33,0000.12,17.3,23.5,,00.0,0648.9,31.1
2021-02-14T19:06:00Z,00000200,01000000,-000.23,0000.28,0000.22,0000.24,0000.09,-000.07,0000.12,-000.03,0000.04,17.3,23.5,,00.0,0648.8,31.1
2021-02-14T19:07:00Z,00000200,01000000,0000.17,0000.06,0000.30,0000.23,0000.03,-000.05,-000.43,-000.11,-000.07,17.4,23.5,,00.0,0648.8,31.1
2021-02-14T19:08:00Z,00000200,01000000,-000.05,0000.17,0000.25,-000.38,-000.17,0000.02,0000.14,-000.12,0000.08,17.4,23.5,,00.0,0648.8,31.1
2021-02-14T19:09:00Z,00000200,01000000,0000.16,0000.33,0000.07,-000.09,-000.08,-000.07,0000.20,0000.13,-000.16,17.4,23.6,,00.0,0648.8,31.1
2021-02-14T19:10:00Z,00000200,01000000,0001.21,0000.10,0000.50,0000.07,-000.10,-000.04,-000.21,-000.04,0000.37,17.4,23.6,,00.0,0648.8,31.1
2021-02-14T19:11:00Z,00000200,01000000,0000.71,0000.09,0000.51,-000.46,-000.22,0000.18,0000.14,-000.18,-000.26,17.4,23.6,,00.0,0648.8,31.1
2021-02-14T19:12:00Z,00000200,01000000,0000.28,0000.42,0000.19,0000.30,0000.28,0000.03,-000.07,0000.66,-000.23,17.4,23.6,,00.0,0648.8,31.1
2021-02-14T19:13:00Z,00000200,01000000,0000.84,0000.23,0000.37,-000.34,-000.07,0000.06,-000.17,-000.75,0000.04,17.4,23.5,,00.0,0648.7,31.1
2021-02-14T19:14:00Z,00000200,01000000,0000.36,0000.28,0000.19,0000.07,0000.00,-000.17,0000.16,0000.39,0000.40,17.4,23.5,,00.0,0648.7,31.1
2021-02-14T19:15:00Z,00000200,01000000,-000.19,0000.62,-000.02,0000.14,0000.18,-000.20,0000.15,-000.02,-000.36,17.4,23.5,,00.0,0648.7,31.1
2021-02-14T19:16:00Z,00000200,01000000,-000.14,0000.13,0000.44,0000.06,0000.00,-000.08,-000.02,0000.12,0000.33,17.4,23.5,,00.0,0648.7,31.1
2021-02-14T19:17:00Z,00000200,01000000,-000.24,0000.18,0000.08,0000.02,-000.08,0000.11,0000.02,-000.00,-000.02,17.4,23.5,,00.0,0648.7,31.1
2021-02-14T19:18:00Z,00000200,01000000,0000.33,0000.13,0000.29,-000.03,-000.01,0000.31,0000.15,0000.01,-000.13,17.4,23.5,,00.0,0648.7,31.1
2021-02-14T19:19:00Z,00000200,01000000,0000.94,0000.05,0000.07,0000.13,-000.07,-000.03,-000.26,-000.13,0000.21,17.4,23.5,,00.0,0648.7,31.1
2021-02-14T19:20:00Z,00000200,01000000,-000.71,-000.16,0000.55,-000.50,0000.07,-000.24,0000.05,0000.06,-000.40,17.4,23.5,,00.0,0648.7,31.1
2021-02-14T19:21:00Z,00000200,01000000,0000.33,0000.44,0000.13,0000.10,-000.19,-000.02,0000.15,0000.08,0000.47,17.3,23.5,,00.0,0648.6,31.1
2021-02-14T19:22:00Z,00000200,01000000,0000.96,0000.55,0000.51,-000.34,0000.05,0000.29,-000.16,-000.16,-000.40,17.3,23.5,,00.0,0648.6,31.1
2021-02-14T19:23:00Z,00000200,01000000,0000.14,0000.24,0000.56,0000.11,0000.05,-000.02,0000.00,-000.03,-000.02,17.3,23.5,,00.0,0648.5,31.1
2021-02-14T19:24:00Z,00000200,01000000,0000.67,0000.18,0000.08,0000.45,-000.02,-000.00,-000.14,0000.12,0000.13,17.3,23.5,,00.0,0648.5,31.0
2021-02-14T19:25:00Z,00000200,01000000,0000.73,0000.14,0000.48,0000.00,0000.12,0000.22,-000.07,-000.58,-000.28,17.3,23.4,,00.0,0648.5,31.1
2021-02-14T19:26:00Z,00000200,01000000,0000.25,0000.31,0000.53,-000.37,-000.12,0000.29,0000.04,0000.24,0000.18,17.3,23.4,,00.0,0648.4,31.1
2021-02-14T19:27:00Z,00000200,01000000,0000.10,0000.57,0000.35,-000.30,0000.06,-000.21,0000.18,0000.31,-000.04,17.3,23.4,,00.0,0648.4,31.0
2021-02-14T19:28:00Z,00000200,01000000,0000.96,0000.42,0000.38,-000.08,0000.17,-000.08,-000.09,-000.11,0000.30,17.3,23.4,,00.0,0648.4,31.0
2021-02-14T19:29:00Z,00000200,01000000,0000.65,0000.48,0000.34,0000.05,-000.38,0000.27,0000.04,-000.36,-000.38,17.3,23.4,,00.0,0648.4,31.0
2021-02-14T19:30:00Z,00000200,01000000,0000.13,0000.13,0000.03,0000.16,0000.04,0000.15,-000.07,0000.51,0000.21,17.2,23.4,,00.0,0648.4,31.0
2021-02-14T19:31:00Z,00000200,01000000,0000.52,0000.42,0000.10,0000.63,-000.07,-000.07,0000.19,-000.26,-000.29,17.2,23.4,,00.0,0648.5,31.0
2021-02-14T19:32:00Z,00000200,01000000,0000.45,0000.11,0000.07,-000.06,-000.10,0000.20,-000.27,-000.01,0000.12,17.2,23.4,,00.0,0648.5,31.0
2021-02-14T19:33:00Z,00000200,01000000,0000.24,0000.31,0000.04,-000.10,-000.10,0000.01,0000.20,0000.09,-000.02,17.1,23.4,,00.0,0648.6,31.0
2021-02-14T19:34:00Z,00000200,01000000,0000.31,0000.37,0000.36,0000.07,-000.02,0000.28,0000.17,0000.26,0000.05,17.1,23.3,,00.0,0648.6,31.0
2021-02-14T19:35:00Z,00000200,01000000,0000.26,0000.30,0000.28,-000.36,-000.08,0000.17,0000.29,0000.22,0000.37,17.1,23.3,,00.0,0648.6,31.0
2021-02-14T19:36:00Z,00000200,01000000,0000.36,-000.02,0000.17,-000.71,-000.17,0000.13,0000.13,0000.03,0000.19,17.2,23.3,,00.0,0648.6,31.0
2021-02-14T19:37:00Z,00000200,01000000,0000.23,0000.24,0000.43,0000.23,0000.06,0000.11,0000.23,-000.10,-000.10,17.3,23.4,,00.0,0648.6,31.0
2021-02-14T19:38:00Z,00000200,01000000,-000.35,0000.51,0000.44,0000.08,-000.06,0000.09,-000.27,0000.37,0000.13,17.4,23.4,,00.0,0648.6,31.0
2021-02-14T19:39:00Z,00000200,01000000,0000.64,0000.13,0000.39,0000.36,0000.03,0000.04,-000.13,-000.22,-000.32,17.4,23.5,,00.0,0648.7,31.1
2021-02-14T19:40:00Z,00000200,01000000,0000.06,0000.51,0000.72,-000.52,0000.14,0000.24,0000.09,-000.08,0000.32,17.5,23.5,,00.0,0648.7,31.0
2021-02-14T19:41:00Z,00000200,01000000,-000.16,0000.40,0000.41,0000.06,-000.04,0000.32,0000.01,0000.09,-000.31,17.5,23.5,,00.0,0648.8,31.0
2021-02-14T19:42:00Z,00000200,01000000,0000.58,0000.23,0000.45,-000.03,0000.02,0000.21,-000.08,-000.31,0000.23,17.4,23.5,,00.0,0648.8,31.0
2021-02-14T19:43:00Z,00000200,01000000,0000.16,0000.42,-000.04,0000.39,-000.02,0000.13,-000.17,0000.36,-000.12,17.4,23.5,,00.0,0648.9,31.0
2021-02-14T19:44:00Z,00000200,01000000,0000.29,0000.44,0000.16,-000.42,-000.03,-000.04,0000.11,-000.01,-000.13,17.3,23.5,,00.0,0648.8,31.0
2021-02-14T19:45:00Z,00000200,01000000,0000.47,0000.40,0000.50,-000.25,0000.23,-000.07,0000.21,0000.05,0000.24,17.3,23.5,,00.0,0648.7,31.0
2021-02-14T19:46:00Z,00000200,01000000,0000.88,-000.03,0000.33,-000.15,-000.04,0000.01,0000.53,0000.28,0000.54,17.3,23.5,,00.0,0648.7,31.0
2021-02-14T19:47:00Z,00000200,01000000,0000.52,0000.31,0000.39,0000.22,0000.24,0000.19,0000.18,0000.14,-000.06,17.2,23.4,,00.0,0648.6,31.0
2021-02-14T19:48:00Z,00000200,01000000,-000.10,0000.52,0000.38,-000.62,-000.16,0000.24,0000.21,0000.40,0000.12,17.2,23.4,,00.0,0648.6,31.0
2021-02-14T19:49:00Z,00000200,01000000,0000.42,0000.25,-000.04,-000.02,-000.17,-000.28,0000.27,-000.28,0000.37,17.2,23.4,,00.0,0648.5,31.0
2021-02-14T19:50:00Z,00000200,01000000,0000.74,0000.26,0000.44,0000.14,0000.10,0000.24,0000.41,0000.86,0000.26,17.2,23.4,,00.0,0648.4,31.0
2021-02-14T19:51:00Z,00000200,01000000,0001.14,0000.62,0000.44,0000.12,0000.15,-000.12,0000.51,0000.17,0000.17,17.3,23.4,,00.0,0648.4,31.0
2021-02-14T19:52:00Z,00000200,01000000,0001.11,0000.18,0000.54,0000.35,0000.04,0000.31,0000.52,0000.43,0000.24,17.4,23.4,,00.0,0648.3,31.0
2021-02-14T19:53:00Z,00000200,01000000,0000.57,0000.31,0000.33,-000.22,0000.08,-000.08,-000.21,-000.16,0000.17,17.4,23.5,,00.0,0648.3,31.0
2021-02-14T19:54:00Z,00000200,01000000,0000.17,0000.29,0000.40,-000.41,-000.11,0000.29,0000.08,0000.42,0000.09,17.4,23.5,,00.0,0648.3,31.0
2021-02-14T19:55:00Z,00000200,01000000,0000.48,0000.27,0000.37,-000.10,0000.01,0000.08,0000.43,0000.18,-000.32,17.4,23.5,,00.0,0648.2,31.0
2021-02-14T19:56:00Z,00000200,01000000,0000.13,0000.23,0000.37,0000.01,-000.17,-000.23,0000.03,0000.13,0000.30,17.4,23.5,,00.0,0648.3,31.0
2021-02-14T19:57:00Z,00000200,41000000,,,,,,,0000.35,0000.25,0000.46,17.4,23.5,,00.0,0648.3,31.0
2021-02-14T19:58:00Z,00000200,61000000,,,,,,,-000.09,-000.09,-000.24,17.0,23.6,,00.0,0647.3,31.0
2021-02-14T19:59:00Z,00000200,21000000,,,,,,,-000.32,-000.23,0000.10,17.0,23.7,,00.0,0647.3,31.0
